Time,TemperatureF,DewpointF,PressureIn,WindDirection,WindDirectionDegrees,WindSpeedMPH,WindSpeedGustMPH,Humidity,HourlyPrecipIn,Conditions,Clouds,dailyrainin,SoftwareType,DateUTC
2013-02-16 00:00:00,32.2,30.6,29.26,WNW,284,0.0,0.0,94,0.00,,,0.00,meteohub,2013-02-16 05:00:00,
2013-02-16 00:01:00,32.2,30.6,29.26,WNW,284,0.0,0.0,94,0.00,,,0.00,meteohub,2013-02-16 05:01:00,
2013-02-16 00:06:00,32.2,30.6,29.26,WNW,283,0.0,0.0,94,0.00,,,0.00,meteohub,2013-02-16 05:06:00,
2013-02-16 00:11:00,32.2,30.6,29.26,ENE,67,0.0,1.0,94,0.00,,,0.00,meteohub,2013-02-16 05:11:00,
2013-02-16 00:17:00,32.4,30.6,29.26,SSW,212,0.0,1.0,93,0.00,,,0.00,meteohub,2013-02-16 05:17:00,
2013-02-16 00:22:00,32.5,30.7,29.25,SSW,212,2.0,2.0,93,0.00,,,0.00,meteohub,2013-02-16 05:22:00,
2013-02-16 00:23:00,32.5,30.6,29.25,NW,322,1.0,1.0,92,0.00,,,0.00,meteohub,2013-02-16 05:23:00,
2013-02-16 00:28:00,33.1,30.7,29.25,WSW,246,0.0,2.0,91,0.00,,,0.00,meteohub,2013-02-16 05:28:00,
2013-02-16 00:33:00,33.3,30.6,29.25,NNW,344,0.0,2.0,90,0.00,,,0.00,meteohub,2013-02-16 05:33:00,
2013-02-16 00:38:00,33.4,30.7,29.24,NNW,345,0.0,2.0,90,0.00,,,0.00,meteohub,2013-02-16 05:38:00,
2013-02-16 00:43:00,33.4,30.6,29.25,SSW,203,0.0,1.0,89,0.00,,,0.00,meteohub,2013-02-16 05:43:00,
2013-02-16 00:48:00,33.4,30.7,29.26,SSW,203,0.0,1.0,90,0.00,,,0.00,meteohub,2013-02-16 05:48:00,
2013-02-16 00:53:00,33.4,30.7,29.26,SSW,203,0.0,1.0,90,0.00,,,0.00,meteohub,2013-02-16 05:53:00,
2013-02-16 00:58:00,33.4,30.7,29.26,NW,318,0.0,1.0,90,0.00,,,0.00,meteohub,2013-02-16 05:58:00,
2013-02-16 01:03:00,33.3,30.6,29.26,NW,318,0.0,1.0,90,0.00,,,0.00,meteohub,2013-02-16 06:03:00,
2013-02-16 01:09:00,33.3,30.9,29.26,NW,318,0.0,1.0,91,0.00,,,0.00,meteohub,2013-02-16 06:09:00,
2013-02-16 01:14:00,33.1,30.7,29.26,NW,318,0.0,1.0,91,0.00,,,0.00,meteohub,2013-02-16 06:14:00,
2013-02-16 01:19:00,32.9,30.6,29.26,NW,318,0.0,0.0,91,0.00,,,0.00,meteohub,2013-02-16 06:19:00,
2013-02-16 01:24:00,32.7,30.7,29.27,NW,317,0.0,0.0,92,0.00,,,0.00,meteohub,2013-02-16 06:24:00,
2013-02-16 01:29:00,32.4,30.4,29.27,NE,55,0.0,0.0,92,0.00,,,0.00,meteohub,2013-02-16 06:29:00,
2013-02-16 01:34:00,32.4,30.6,29.26,NE,55,0.0,1.0,93,0.00,,,0.00,meteohub,2013-02-16 06:34:00,
2013-02-16 01:39:00,32.2,30.4,29.27,NE,56,0.0,1.0,93,0.00,,,0.00,meteohub,2013-02-16 06:39:00,
2013-02-16 01:44:00,32.0,30.2,29.26,NW,321,0.0,1.0,93,0.00,,,0.00,meteohub,2013-02-16 06:44:00,
2013-02-16 01:49:00,31.8,30.4,29.26,NW,320,0.0,1.0,94,0.00,,,0.00,meteohub,2013-02-16 06:49:00,
2013-02-16 01:55:00,31.6,30.2,29.26,NW,320,0.0,1.0,94,0.00,,,0.00,meteohub,2013-02-16 06:55:00,
2013-02-16 02:00:00,31.5,30.0,29.26,NW,321,0.0,1.0,94,0.00,,,0.00,meteohub,2013-02-16 07:00:00,
2013-02-16 02:05:00,31.5,30.0,29.27,NW,320,0.0,1.0,94,0.00,,,0.00,meteohub,2013-02-16 07:05:00,
2013-02-16 02:10:00,31.5,30.0,29.26,NW,319,0.0,1.0,94,0.00,,,0.00,meteohub,2013-02-16 07:10:00,
2013-02-16 02:15:00,31.3,29.8,29.26,NNW,328,0.0,0.0,94,0.00,,,0.00,meteohub,2013-02-16 07:15:00,
2013-02-16 02:20:00,31.3,30.0,29.26,North,349,0.0,1.0,95,0.00,,,0.00,meteohub,2013-02-16 07:20:00,
2013-02-16 02:25:00,30.9,29.7,29.26,NNW,328,0.0,1.0,95,0.00,,,0.00,meteohub,2013-02-16 07:25:00,
2013-02-16 02:30:00,30.9,29.7,29.26,NNW,328,0.0,1.0,95,0.00,,,0.00,meteohub,2013-02-16 07:30:00,
2013-02-16 02:36:00,30.7,29.5,29.26,NNW,328,0.0,1.0,95,0.00,,,0.00,meteohub,2013-02-16 07:36:00,
2013-02-16 02:41:00,30.7,29.5,29.26,NW,326,0.0,0.0,95,0.00,,,0.00,meteohub,2013-02-16 07:41:00,
2013-02-16 02:46:00,30.6,29.3,29.26,NNW,327,0.0,0.0,95,0.00,,,0.00,meteohub,2013-02-16 07:46:00,
2013-02-16 02:51:00,30.6,29.3,29.25,NNW,328,0.0,0.0,95,0.00,,,0.00,meteohub,2013-02-16 07:51:00,
2013-02-16 02:56:00,30.4,29.1,29.25,NNW,328,0.0,0.0,95,0.00,,,0.00,meteohub,2013-02-16 07:56:00,
2013-02-16 03:01:00,30.4,29.1,29.25,NNW,328,0.0,0.0,95,0.00,,,0.00,meteohub,2013-02-16 08:01:00,
2013-02-16 03:06:00,30.4,29.1,29.25,NNW,328,0.0,0.0,95,0.00,,,0.00,meteohub,2013-02-16 08:06:00,
2013-02-16 03:11:00,30.2,28.9,29.24,NNW,328,0.0,0.0,95,0.00,,,0.00,meteohub,2013-02-16 08:11:00,
2013-02-16 03:16:00,30.2,28.9,29.24,NNW,328,0.0,1.0,95,0.00,,,0.00,meteohub,2013-02-16 08:16:00,
2013-02-16 03:21:00,30.0,28.8,29.24,NW,306,0.0,1.0,95,0.00,,,0.00,meteohub,2013-02-16 08:21:00,
2013-02-16 03:26:00,30.0,28.8,29.25,NW,306,0.0,1.0,95,0.00,,,0.00,meteohub,2013-02-16 08:26:00,
2013-02-16 03:31:00,30.0,28.8,29.25,NW,306,0.0,0.0,95,0.00,,,0.00,meteohub,2013-02-16 08:31:00,
2013-02-16 03:37:00,30.0,28.8,29.25,NW,307,0.0,0.0,95,0.00,,,0.00,meteohub,2013-02-16 08:37:00,
2013-02-16 03:42:00,30.0,28.8,29.25,NW,306,0.0,0.0,95,0.00,,,0.00,meteohub,2013-02-16 08:42:00,
2013-02-16 03:47:00,30.0,28.8,29.24,NW,306,0.0,0.0,95,0.00,,,0.00,meteohub,2013-02-16 08:47:00,
2013-02-16 03:52:00,30.0,28.8,29.24,NW,306,0.0,0.0,95,0.00,,,0.00,meteohub,2013-02-16 08:52:00,
2013-02-16 03:57:00,30.0,28.8,29.24,NW,307,0.0,0.0,95,0.00,,,0.00,meteohub,2013-02-16 08:57:00,
2013-02-16 04:02:00,30.0,28.8,29.24,NW,306,0.0,0.0,95,0.00,,,0.00,meteohub,2013-02-16 09:02:00,
2013-02-16 04:07:00,29.8,28.6,29.24,NNW,346,0.0,0.0,95,0.00,,,0.00,meteohub,2013-02-16 09:07:00,
2013-02-16 04:12:00,29.8,28.6,29.24,NNW,346,0.0,0.0,95,0.00,,,0.00,meteohub,2013-02-16 09:12:00,
2013-02-16 04:17:00,29.8,28.6,29.24,NNW,346,0.0,0.0,95,0.00,,,0.00,meteohub,2013-02-16 09:17:00,
2013-02-16 04:22:00,29.7,28.6,29.24,NNW,346,0.0,0.0,96,0.00,,,0.00,meteohub,2013-02-16 09:22:00,
2013-02-16 04:27:00,29.7,28.4,29.24,NNW,345,0.0,0.0,95,0.00,,,0.00,meteohub,2013-02-16 09:27:00,
2013-02-16 04:32:00,29.5,28.2,29.24,NNW,335,0.0,0.0,95,0.00,,,0.00,meteohub,2013-02-16 09:32:00,
2013-02-16 04:37:00,29.3,28.0,29.24,NW,319,0.0,1.0,95,0.00,,,0.00,meteohub,2013-02-16 09:37:00,
2013-02-16 04:42:00,29.1,27.9,29.24,NW,309,0.0,1.0,95,0.00,,,0.00,meteohub,2013-02-16 09:42:00,
2013-02-16 04:47:00,28.9,27.7,29.24,NW,309,0.0,1.0,95,0.00,,,0.00,meteohub,2013-02-16 09:47:00,
2013-02-16 04:52:00,28.9,27.7,29.24,NNW,335,0.0,0.0,95,0.00,,,0.00,meteohub,2013-02-16 09:52:00,
2013-02-16 04:57:00,28.9,27.7,29.24,NNW,333,0.0,0.0,95,0.00,,,0.00,meteohub,2013-02-16 09:57:00,
2013-02-16 05:02:00,28.8,27.5,29.24,NNW,333,0.0,0.0,95,0.00,,,0.00,meteohub,2013-02-16 10:02:00,
2013-02-16 05:07:00,28.8,27.5,29.24,NNW,345,0.0,1.0,95,0.00,,,0.00,meteohub,2013-02-16 10:07:00,
2013-02-16 05:12:00,28.6,27.3,29.23,NNE,26,0.0,1.0,95,0.00,,,0.00,meteohub,2013-02-16 10:12:00,
2013-02-16 05:17:00,28.4,27.1,29.23,NNE,15,0.0,1.0,95,0.00,,,0.00,meteohub,2013-02-16 10:17:00,
2013-02-16 05:22:00,28.2,27.0,29.23,NNW,338,0.0,1.0,95,0.00,,,0.00,meteohub,2013-02-16 10:22:00,
2013-02-16 05:27:00,28.2,27.0,29.23,North,359,0.0,1.0,95,0.00,,,0.00,meteohub,2013-02-16 10:27:00,
2013-02-16 05:32:00,28.2,27.0,29.24,North,0,0.0,1.0,95,0.00,,,0.00,meteohub,2013-02-16 10:32:00,
2013-02-16 05:37:00,28.0,26.8,29.23,WNW,302,0.0,0.0,95,0.00,,,0.00,meteohub,2013-02-16 10:37:00,
2013-02-16 05:42:00,28.0,26.8,29.23,North,349,0.0,0.0,95,0.00,,,0.00,meteohub,2013-02-16 10:42:00,
2013-02-16 05:47:00,28.0,26.8,29.24,NNW,347,0.0,0.0,95,0.00,,,0.00,meteohub,2013-02-16 10:47:00,
2013-02-16 05:52:00,27.9,26.6,29.24,NW,324,0.0,0.0,95,0.00,,,0.00,meteohub,2013-02-16 10:52:00,
2013-02-16 05:57:00,27.9,26.6,29.24,NW,324,0.0,0.0,95,0.00,,,0.00,meteohub,2013-02-16 10:57:00,
2013-02-16 06:02:00,27.9,26.6,29.24,NW,324,0.0,0.0,95,0.00,,,0.00,meteohub,2013-02-16 11:02:00,
2013-02-16 06:07:00,27.9,26.6,29.25,NW,324,0.0,0.0,95,0.00,,,0.00,meteohub,2013-02-16 11:07:00,
2013-02-16 06:12:00,27.9,26.6,29.25,NW,326,0.0,0.0,95,0.00,,,0.00,meteohub,2013-02-16 11:12:00,
2013-02-16 06:17:00,27.7,26.4,29.25,NW,326,0.0,0.0,95,0.00,,,0.00,meteohub,2013-02-16 11:17:00,
2013-02-16 06:22:00,27.7,26.4,29.25,NW,326,0.0,0.0,95,0.00,,,0.00,meteohub,2013-02-16 11:22:00,
2013-02-16 06:27:00,27.9,26.6,29.25,NW,318,0.0,0.0,95,0.00,,,0.00,meteohub,2013-02-16 11:27:00,
2013-02-16 06:32:00,27.9,26.6,29.25,NW,318,0.0,0.0,95,0.00,,,0.00,meteohub,2013-02-16 11:32:00,
2013-02-16 06:37:00,27.9,26.6,29.25,NW,306,0.0,0.0,95,0.00,,,0.00,meteohub,2013-02-16 11:37:00,
2013-02-16 06:42:00,27.7,26.4,29.26,NW,307,0.0,0.0,95,0.00,,,0.00,meteohub,2013-02-16 11:42:00,
2013-02-16 06:47:00,27.9,26.6,29.26,NW,314,0.0,0.0,95,0.00,,,0.00,meteohub,2013-02-16 11:47:00,
2013-02-16 06:52:00,27.7,26.4,29.26,NW,311,0.0,0.0,95,0.00,,,0.00,meteohub,2013-02-16 11:52:00,
2013-02-16 06:57:00,27.7,26.4,29.26,NNW,328,0.0,0.0,95,0.00,,,0.00,meteohub,2013-02-16 11:57:00,
2013-02-16 07:02:00,27.7,26.4,29.26,NW,326,0.0,0.0,95,0.00,,,0.00,meteohub,2013-02-16 12:02:00,
2013-02-16 07:07:00,27.7,26.4,29.25,NNW,345,0.0,0.0,95,0.00,,,0.00,meteohub,2013-02-16 12:07:00,
2013-02-16 07:12:00,27.7,26.4,29.25,NNW,329,0.0,1.0,95,0.00,,,0.00,meteohub,2013-02-16 12:12:00,
2013-02-16 07:17:00,27.7,26.4,29.25,NNW,328,0.0,1.0,95,0.00,,,0.00,meteohub,2013-02-16 12:17:00,
2013-02-16 07:22:00,27.7,26.4,29.25,NNW,329,0.0,1.0,95,0.00,,,0.00,meteohub,2013-02-16 12:22:00,
2013-02-16 07:27:00,27.7,26.4,29.25,NNW,328,0.0,1.0,95,0.00,,,0.00,meteohub,2013-02-16 12:27:00,
2013-02-16 07:32:00,27.9,26.6,29.24,NNW,333,0.0,1.0,95,0.00,,,0.00,meteohub,2013-02-16 12:32:00,
2013-02-16 07:37:00,27.9,26.6,29.24,NW,320,0.0,1.0,95,0.00,,,0.00,meteohub,2013-02-16 12:37:00,
2013-02-16 07:42:00,28.0,26.8,29.25,NW,320,0.0,1.0,95,0.00,,,0.00,meteohub,2013-02-16 12:42:00,
2013-02-16 07:47:00,28.2,27.0,29.24,NW,320,0.0,1.0,95,0.00,,,0.00,meteohub,2013-02-16 12:47:00,
2013-02-16 07:52:00,28.6,27.3,29.24,NW,321,0.0,1.0,95,0.00,,,0.00,meteohub,2013-02-16 12:52:00,
2013-02-16 07:57:00,28.6,27.1,29.25,NNW,328,0.0,1.0,94,0.00,,,0.00,meteohub,2013-02-16 12:57:00,
2013-02-16 08:02:00,28.8,27.3,29.25,NNW,330,0.0,1.0,94,0.00,,,0.00,meteohub,2013-02-16 13:02:00,
2013-02-16 08:07:00,28.8,27.0,29.24,NNW,333,0.0,1.0,93,0.00,,,0.00,meteohub,2013-02-16 13:07:00,
2013-02-16 08:12:00,28.8,26.8,29.24,NW,324,0.0,1.0,92,0.00,,,0.00,meteohub,2013-02-16 13:12:00,
2013-02-16 08:17:00,28.8,26.8,29.25,NE,39,0.0,1.0,92,0.00,,,0.00,meteohub,2013-02-16 13:17:00,
2013-02-16 08:22:00,28.9,26.6,29.25,West,274,0.0,1.0,91,0.00,,,0.00,meteohub,2013-02-16 13:22:00,
2013-02-16 08:27:00,28.9,26.4,29.25,NW,321,0.0,1.0,90,0.00,,,0.00,meteohub,2013-02-16 13:27:00,
2013-02-16 08:32:00,28.9,26.1,29.25,NNW,328,0.0,1.0,89,0.00,,,0.00,meteohub,2013-02-16 13:32:00,
2013-02-16 08:37:00,29.1,26.6,29.25,NW,325,0.0,1.0,90,0.00,,,0.00,meteohub,2013-02-16 13:37:00,
2013-02-16 08:42:00,29.5,26.6,29.25,NW,325,0.0,1.0,89,0.00,,,0.00,meteohub,2013-02-16 13:42:00,
2013-02-16 08:47:00,29.7,26.8,29.25,NW,314,0.0,1.0,89,0.00,,,0.00,meteohub,2013-02-16 13:47:00,
2013-02-16 08:52:00,29.7,26.8,29.25,NW,318,0.0,1.0,89,0.00,,,0.00,meteohub,2013-02-16 13:52:00,
2013-02-16 08:57:00,29.8,27.3,29.24,SSE,149,0.0,1.0,90,0.00,,,0.00,meteohub,2013-02-16 13:57:00,
2013-02-16 09:02:00,29.7,26.6,29.25,NNW,328,0.0,1.0,88,0.00,,,0.00,meteohub,2013-02-16 14:02:00,
2013-02-16 09:07:00,29.7,26.6,29.25,NW,325,0.0,1.0,88,0.00,,,0.00,meteohub,2013-02-16 14:07:00,
2013-02-16 09:12:00,29.5,25.9,29.25,NW,311,0.0,0.0,86,0.00,,,0.00,meteohub,2013-02-16 14:12:00,
2013-02-16 09:17:00,29.5,26.1,29.25,NW,316,0.0,0.0,87,0.00,,,0.00,meteohub,2013-02-16 14:17:00,
2013-02-16 09:22:00,29.5,25.5,29.25,NNE,33,0.0,0.0,85,0.00,,,0.00,meteohub,2013-02-16 14:22:00,
2013-02-16 09:27:00,29.5,25.5,29.25,NW,322,0.0,1.0,85,0.00,,,0.00,meteohub,2013-02-16 14:27:00,
2013-02-16 09:32:00,29.5,25.2,29.24,NNW,340,0.0,1.0,84,0.00,,,0.00,meteohub,2013-02-16 14:32:00,
2013-02-16 09:37:00,29.5,25.0,29.25,NW,326,0.0,1.0,83,0.00,,,0.00,meteohub,2013-02-16 14:37:00,
2013-02-16 09:42:00,29.3,24.3,29.25,NW,310,0.0,1.0,81,0.00,,,0.00,meteohub,2013-02-16 14:42:00,
2013-02-16 09:47:00,29.1,24.3,29.25,WNW,302,1.0,4.0,82,0.00,,,0.00,meteohub,2013-02-16 14:47:00,
2013-02-16 09:52:00,29.3,25.2,29.25,NNW,328,0.0,4.0,84,0.00,,,0.00,meteohub,2013-02-16 14:52:00,
2013-02-16 09:57:00,29.5,24.4,29.25,NW,314,1.0,4.0,81,0.00,,,0.00,meteohub,2013-02-16 14:57:00,
2013-02-16 10:02:00,29.8,24.1,29.25,NNW,338,0.0,3.0,79,0.00,,,0.00,meteohub,2013-02-16 15:02:00,
2013-02-16 10:07:00,30.6,25.2,29.25,NNE,30,0.0,3.0,80,0.00,,,0.00,meteohub,2013-02-16 15:07:00,
2013-02-16 10:12:00,30.9,25.2,29.25,NNW,328,0.0,2.0,79,0.00,,,0.00,meteohub,2013-02-16 15:12:00,
2013-02-16 10:17:00,31.3,25.0,29.24,NNW,342,1.0,2.0,77,0.00,,,0.00,meteohub,2013-02-16 15:17:00,
2013-02-16 10:22:00,31.3,25.2,29.24,North,4,2.0,4.0,78,0.00,,,0.00,meteohub,2013-02-16 15:22:00,
2013-02-16 10:27:00,31.8,25.5,29.24,SSE,162,0.0,4.0,77,0.00,,,0.00,meteohub,2013-02-16 15:27:00,
2013-02-16 10:32:00,32.0,24.6,29.24,NW,322,0.0,4.0,74,0.00,,,0.00,meteohub,2013-02-16 15:32:00,
2013-02-16 10:37:00,32.2,25.2,29.23,NW,310,2.0,3.0,75,0.00,,,0.00,meteohub,2013-02-16 15:37:00,
2013-02-16 10:42:00,32.5,25.5,29.23,NNW,336,3.0,3.0,75,0.00,,,0.00,meteohub,2013-02-16 15:42:00,
2013-02-16 10:47:00,32.7,25.7,29.23,NNW,334,1.0,5.0,75,0.00,,,0.00,meteohub,2013-02-16 15:47:00,
2013-02-16 10:52:00,32.5,24.8,29.23,NNW,342,0.0,5.0,73,0.00,,,0.00,meteohub,2013-02-16 15:52:00,
2013-02-16 10:57:00,32.7,25.0,29.23,NW,313,1.0,5.0,73,0.00,,,0.00,meteohub,2013-02-16 15:57:00,
2013-02-16 11:02:00,32.9,23.9,29.23,NW,312,1.0,5.0,69,0.00,,,0.00,meteohub,2013-02-16 16:02:00,
2013-02-16 11:07:00,32.9,23.5,29.22,NW,323,2.0,4.0,68,0.00,,,0.00,meteohub,2013-02-16 16:07:00,
2013-02-16 11:12:00,32.9,23.5,29.22,SW,217,0.0,4.0,68,0.00,,,0.00,meteohub,2013-02-16 16:12:00,
2013-02-16 11:17:00,33.6,23.5,29.23,ESE,103,0.0,4.0,66,0.00,,,0.00,meteohub,2013-02-16 16:17:00,
2013-02-16 11:22:00,34.3,24.1,29.23,South,172,0.0,3.0,66,0.00,,,0.00,meteohub,2013-02-16 16:22:00,
2013-02-16 11:27:00,34.9,23.5,29.23,NW,313,0.0,2.0,63,0.00,,,0.00,meteohub,2013-02-16 16:27:00,
2013-02-16 11:32:00,35.4,23.4,29.23,NW,314,0.0,2.0,61,0.00,,,0.00,meteohub,2013-02-16 16:32:00,
2013-02-16 11:37:00,35.8,22.5,29.23,WNW,290,1.0,2.0,58,0.00,,,0.00,meteohub,2013-02-16 16:37:00,
2013-02-16 11:42:00,35.8,23.7,29.22,NE,45,0.0,3.0,61,0.00,,,0.00,meteohub,2013-02-16 16:42:00,
2013-02-16 11:47:00,36.1,22.5,29.22,NE,46,2.0,3.0,57,0.00,,,0.00,meteohub,2013-02-16 16:47:00,
2013-02-16 11:52:00,35.8,21.6,29.22,NW,324,4.0,4.0,56,0.00,,,0.00,meteohub,2013-02-16 16:52:00,
2013-02-16 11:57:00,35.1,22.6,29.21,SSW,200,0.0,4.0,60,0.00,,,0.00,meteohub,2013-02-16 16:57:00,
2013-02-16 12:02:00,35.2,22.3,29.21,NW,324,0.0,4.0,59,0.01,,,0.01,meteohub,2013-02-16 17:02:00,
2013-02-16 12:07:00,35.6,22.3,29.21,SSW,203,0.0,4.0,58,0.01,,,0.01,meteohub,2013-02-16 17:07:00,
2013-02-16 12:12:00,35.6,21.0,29.20,WNW,300,1.0,3.0,55,0.01,,,0.01,meteohub,2013-02-16 17:12:00,
2013-02-16 12:17:00,35.2,20.7,29.20,NW,316,3.0,3.0,55,0.02,,,0.02,meteohub,2013-02-16 17:17:00,
2013-02-16 12:22:00,35.1,21.0,29.20,North,9,0.0,3.0,56,0.02,,,0.02,meteohub,2013-02-16 17:22:00,
2013-02-16 12:27:00,35.2,21.9,29.20,NW,313,2.0,3.0,58,0.02,,,0.02,meteohub,2013-02-16 17:27:00,
2013-02-16 12:32:00,35.8,21.6,29.20,West,279,0.0,3.0,56,0.03,,,0.03,meteohub,2013-02-16 17:32:00,
2013-02-16 12:37:00,36.1,21.9,29.19,NW,324,2.0,2.0,56,0.03,,,0.03,meteohub,2013-02-16 17:37:00,
2013-02-16 12:42:00,36.0,21.4,29.19,NNE,31,3.0,5.0,55,0.03,,,0.03,meteohub,2013-02-16 17:42:00,
2013-02-16 12:47:00,35.8,21.6,29.19,NW,308,0.0,5.0,56,0.03,,,0.03,meteohub,2013-02-16 17:47:00,
2013-02-16 12:52:00,35.8,21.2,29.19,NW,319,0.0,5.0,55,0.03,,,0.03,meteohub,2013-02-16 17:52:00,
2013-02-16 12:57:00,36.0,21.0,29.19,WSW,241,0.0,4.0,54,0.04,,,0.04,meteohub,2013-02-16 17:57:00,
2013-02-16 13:02:00,36.0,21.0,29.19,NW,324,0.0,3.0,54,0.03,,,0.04,meteohub,2013-02-16 18:02:00,
2013-02-16 13:07:00,36.1,21.6,29.18,NW,322,4.0,4.0,55,0.04,,,0.05,meteohub,2013-02-16 18:07:00,
2013-02-16 13:12:00,35.8,21.2,29.18,NNE,13,1.0,4.0,55,0.04,,,0.05,meteohub,2013-02-16 18:12:00,
2013-02-16 13:17:00,35.8,20.8,29.18,NNW,345,0.0,4.0,54,0.03,,,0.05,meteohub,2013-02-16 18:17:00,
2013-02-16 13:22:00,36.3,20.8,29.18,WNW,302,2.0,4.0,53,0.04,,,0.06,meteohub,2013-02-16 18:22:00,
2013-02-16 13:27:00,36.1,21.9,29.18,ENE,68,1.0,3.0,56,0.04,,,0.06,meteohub,2013-02-16 18:27:00,
2013-02-16 13:32:00,35.8,21.6,29.18,NNE,13,0.0,3.0,56,0.03,,,0.06,meteohub,2013-02-16 18:32:00,
2013-02-16 13:37:00,36.0,21.7,29.18,SSW,194,2.0,4.0,56,0.03,,,0.06,meteohub,2013-02-16 18:37:00,
2013-02-16 13:42:00,36.1,21.6,29.18,SSW,195,0.0,4.0,55,0.03,,,0.06,meteohub,2013-02-16 18:42:00,
2013-02-16 13:47:00,36.5,21.9,29.18,SSW,195,1.0,4.0,55,0.03,,,0.06,meteohub,2013-02-16 18:47:00,
2013-02-16 13:53:00,36.3,20.8,29.18,NW,322,1.0,4.0,53,0.03,,,0.06,meteohub,2013-02-16 18:53:00,
2013-02-16 13:58:00,36.0,20.5,29.18,NNW,328,2.0,4.0,53,0.02,,,0.06,meteohub,2013-02-16 18:58:00,
2013-02-16 14:03:00,36.0,20.5,29.18,NNW,340,0.0,4.0,53,0.02,,,0.06,meteohub,2013-02-16 19:03:00,
2013-02-16 14:08:00,35.8,21.2,29.18,NW,308,0.0,4.0,55,0.01,,,0.06,meteohub,2013-02-16 19:08:00,
2013-02-16 14:13:00,35.4,20.8,29.18,NW,323,0.0,4.0,55,0.02,,,0.07,meteohub,2013-02-16 19:13:00,
2013-02-16 14:18:00,35.2,20.7,29.18,WNW,300,1.0,3.0,55,0.02,,,0.07,meteohub,2013-02-16 19:18:00,
2013-02-16 14:24:00,35.1,20.1,29.17,WNW,287,0.0,3.0,54,0.01,,,0.07,meteohub,2013-02-16 19:24:00,
2013-02-16 14:29:00,35.2,21.2,29.17,WNW,287,0.0,3.0,56,0.01,,,0.07,meteohub,2013-02-16 19:29:00,
2013-02-16 14:34:00,35.1,20.1,29.17,NW,322,1.0,3.0,54,0.01,,,0.07,meteohub,2013-02-16 19:34:00,
2013-02-16 14:39:00,34.9,21.2,29.17,North,350,0.0,3.0,57,0.01,,,0.07,meteohub,2013-02-16 19:39:00,
2013-02-16 14:44:00,35.1,21.0,29.17,NNE,32,0.0,3.0,56,0.01,,,0.07,meteohub,2013-02-16 19:44:00,
2013-02-16 14:49:00,35.1,21.0,29.16,WNW,295,0.0,3.0,56,0.01,,,0.07,meteohub,2013-02-16 19:49:00,
2013-02-16 14:54:00,35.1,21.4,29.16,WNW,299,0.0,1.0,57,0.01,,,0.07,meteohub,2013-02-16 19:54:00,
2013-02-16 15:00:00,35.1,21.4,29.16,SE,126,0.0,2.0,57,0.01,,,0.07,meteohub,2013-02-16 20:00:00,
2013-02-16 15:05:00,34.9,21.2,29.16,WSW,245,0.0,3.0,57,0.01,,,0.07,meteohub,2013-02-16 20:05:00,
2013-02-16 15:10:00,34.3,21.0,29.16,NW,307,1.0,3.0,58,0.01,,,0.07,meteohub,2013-02-16 20:10:00,
2013-02-16 15:15:00,34.2,21.4,29.16,NW,322,1.0,3.0,59,0.00,,,0.07,meteohub,2013-02-16 20:15:00,
2013-02-16 15:20:00,33.8,19.8,29.15,North,354,0.0,3.0,56,0.00,,,0.07,meteohub,2013-02-16 20:20:00,
2013-02-16 15:25:00,33.6,20.8,29.15,North,8,0.0,3.0,59,0.00,,,0.07,meteohub,2013-02-16 20:25:00,
2013-02-16 15:30:00,33.3,20.8,29.15,NW,319,0.0,5.0,60,0.00,,,0.07,meteohub,2013-02-16 20:30:00,
2013-02-16 15:35:00,32.7,20.3,29.14,WNW,290,1.0,5.0,60,0.00,,,0.07,meteohub,2013-02-16 20:35:00,
2013-02-16 15:40:00,32.5,20.1,29.15,NNW,338,1.0,5.0,60,0.00,,,0.07,meteohub,2013-02-16 20:40:00,
2013-02-16 15:45:00,32.4,19.9,29.15,NW,326,3.0,4.0,60,0.00,,,0.07,meteohub,2013-02-16 20:45:00,
2013-02-16 15:51:00,32.2,19.4,29.15,NW,322,1.0,4.0,59,0.00,,,0.07,meteohub,2013-02-16 20:51:00,
2013-02-16 15:56:00,32.0,20.1,29.15,NW,323,3.0,5.0,61,0.00,,,0.07,meteohub,2013-02-16 20:56:00,
2013-02-16 16:01:00,31.8,19.6,29.16,North,356,2.0,5.0,60,0.00,,,0.07,meteohub,2013-02-16 21:01:00,
2013-02-16 16:06:00,31.8,19.9,29.16,NW,322,0.0,5.0,61,0.00,,,0.07,meteohub,2013-02-16 21:06:00,
2013-02-16 16:11:00,31.6,19.8,29.16,NW,322,1.0,4.0,61,0.00,,,0.07,meteohub,2013-02-16 21:11:00,
2013-02-16 16:16:00,31.6,19.8,29.16,NE,44,1.0,3.0,61,0.00,,,0.07,meteohub,2013-02-16 21:16:00,
2013-02-16 16:21:00,31.5,20.3,29.17,NW,318,2.0,3.0,63,0.00,,,0.07,meteohub,2013-02-16 21:21:00,
2013-02-16 16:26:00,31.3,20.5,29.17,NW,324,1.0,3.0,64,0.00,,,0.07,meteohub,2013-02-16 21:26:00,
2013-02-16 16:31:00,30.9,19.8,29.16,NW,318,3.0,3.0,63,0.00,,,0.07,meteohub,2013-02-16 21:31:00,
2013-02-16 16:36:00,30.9,19.8,29.16,NNW,328,1.0,3.0,63,0.00,,,0.07,meteohub,2013-02-16 21:36:00,
2013-02-16 16:42:00,30.7,20.3,29.16,NNW,328,0.0,3.0,65,0.00,,,0.07,meteohub,2013-02-16 21:42:00,
2013-02-16 16:47:00,30.6,19.8,29.16,NW,318,1.0,3.0,64,0.00,,,0.07,meteohub,2013-02-16 21:47:00,
2013-02-16 16:52:00,30.6,20.1,29.16,NW,319,1.0,2.0,65,0.00,,,0.07,meteohub,2013-02-16 21:52:00,
2013-02-16 16:57:00,30.4,19.9,29.16,NW,322,0.0,2.0,65,0.00,,,0.07,meteohub,2013-02-16 21:57:00,
2013-02-16 17:02:00,30.4,20.7,29.16,NW,321,0.0,2.0,67,0.00,,,0.07,meteohub,2013-02-16 22:02:00,
2013-02-16 17:07:00,30.2,20.5,29.15,NW,312,0.0,2.0,67,0.00,,,0.07,meteohub,2013-02-16 22:07:00,
2013-02-16 17:12:00,30.0,20.1,29.15,NNW,328,1.0,3.0,66,0.00,,,0.07,meteohub,2013-02-16 22:12:00,
2013-02-16 17:17:00,30.0,20.1,29.15,NW,323,0.0,3.0,66,0.00,,,0.07,meteohub,2013-02-16 22:17:00,
2013-02-16 17:22:00,29.8,20.3,29.15,NW,315,0.0,3.0,67,0.00,,,0.07,meteohub,2013-02-16 22:22:00,
2013-02-16 17:27:00,29.7,20.5,29.15,NW,309,0.0,3.0,68,0.00,,,0.07,meteohub,2013-02-16 22:27:00,
2013-02-16 17:32:00,29.7,20.1,29.15,NW,309,0.0,3.0,67,0.00,,,0.07,meteohub,2013-02-16 22:32:00,
2013-02-16 17:37:00,29.5,20.3,29.15,NW,309,0.0,1.0,68,0.00,,,0.07,meteohub,2013-02-16 22:37:00,
2013-02-16 17:42:00,29.5,19.9,29.16,North,354,0.0,1.0,67,0.00,,,0.07,meteohub,2013-02-16 22:42:00,
2013-02-16 17:47:00,29.5,19.6,29.15,NW,323,0.0,2.0,66,0.00,,,0.07,meteohub,2013-02-16 22:47:00,
2013-02-16 17:52:00,29.3,19.8,29.15,West,278,0.0,2.0,67,0.00,,,0.07,meteohub,2013-02-16 22:52:00,
2013-02-16 17:57:00,29.1,19.2,29.15,NW,314,0.0,2.0,66,0.00,,,0.07,meteohub,2013-02-16 22:57:00,
2013-02-16 18:02:00,29.1,19.2,29.15,NNW,338,0.0,2.0,66,0.00,,,0.07,meteohub,2013-02-16 23:02:00,
2013-02-16 18:07:00,28.9,19.0,29.15,NW,314,0.0,3.0,66,0.00,,,0.07,meteohub,2013-02-16 23:07:00,
2013-02-16 18:12:00,28.9,19.8,29.15,NW,306,0.0,3.0,68,0.00,,,0.07,meteohub,2013-02-16 23:12:00,
2013-02-16 18:17:00,28.8,19.2,29.14,NW,311,0.0,3.0,67,0.00,,,0.07,meteohub,2013-02-16 23:17:00,
2013-02-16 18:22:00,28.6,19.4,29.14,NW,310,0.0,2.0,68,0.00,,,0.07,meteohub,2013-02-16 23:22:00,
2013-02-16 18:27:00,28.6,19.0,29.14,NW,311,0.0,2.0,67,0.00,,,0.07,meteohub,2013-02-16 23:27:00,
2013-02-16 18:32:00,28.6,19.4,29.14,NW,320,0.0,1.0,68,0.00,,,0.07,meteohub,2013-02-16 23:32:00,
2013-02-16 18:37:00,28.2,19.0,29.13,NW,319,1.0,2.0,68,0.00,,,0.07,meteohub,2013-02-16 23:37:00,
2013-02-16 18:42:00,28.2,19.0,29.14,NW,319,0.0,2.0,68,0.00,,,0.07,meteohub,2013-02-16 23:42:00,
2013-02-16 18:47:00,28.2,19.0,29.14,WNW,298,1.0,2.0,68,0.00,,,0.07,meteohub,2013-02-16 23:47:00,
2013-02-16 18:52:00,28.0,18.9,29.14,NW,312,1.0,2.0,68,0.00,,,0.07,meteohub,2013-02-16 23:52:00,
2013-02-16 18:57:00,28.0,18.5,29.14,NW,314,1.0,2.0,67,0.00,,,0.07,meteohub,2013-02-16 23:57:00,
2013-02-16 19:02:00,28.0,18.9,29.14,NW,307,2.0,2.0,68,0.00,,,0.07,meteohub,2013-02-17 00:02:00,
2013-02-16 19:07:00,28.0,18.9,29.13,NW,324,1.0,3.0,68,0.00,,,0.00,meteohub,2013-02-17 00:07:00,
2013-02-16 19:12:00,28.0,18.1,29.14,NNW,330,0.0,3.0,66,0.00,,,0.00,meteohub,2013-02-17 00:12:00,
2013-02-16 19:17:00,27.9,17.6,29.14,NW,321,1.0,3.0,65,0.00,,,0.00,meteohub,2013-02-17 00:17:00,
2013-02-16 19:22:00,27.9,17.6,29.14,NNW,328,1.0,3.0,65,0.00,,,0.00,meteohub,2013-02-17 00:22:00,
2013-02-16 19:27:00,27.9,18.7,29.13,NW,308,0.0,3.0,68,0.00,,,0.00,meteohub,2013-02-17 00:27:00,
2013-02-16 19:32:00,27.9,18.3,29.14,NE,53,0.0,3.0,67,0.00,,,0.00,meteohub,2013-02-17 00:32:00,
2013-02-16 19:37:00,27.9,18.7,29.14,NW,304,0.0,3.0,68,0.00,,,0.00,meteohub,2013-02-17 00:37:00,
2013-02-16 19:42:00,27.9,18.0,29.13,NW,308,0.0,2.0,66,0.00,,,0.00,meteohub,2013-02-17 00:42:00,
2013-02-16 19:47:00,27.9,18.3,29.14,NW,308,0.0,2.0,67,0.00,,,0.00,meteohub,2013-02-17 00:47:00,
2013-02-16 19:52:00,27.9,18.7,29.14,NW,308,0.0,1.0,68,0.00,,,0.00,meteohub,2013-02-17 00:52:00,
2013-02-16 19:57:00,27.7,18.5,29.14,NW,311,0.0,1.0,68,0.00,,,0.00,meteohub,2013-02-17 00:57:00,
2013-02-16 20:02:00,27.7,18.5,29.13,NW,311,0.0,1.0,68,0.00,,,0.00,meteohub,2013-02-17 01:02:00,
2013-02-16 20:07:00,27.7,18.5,29.13,NNE,13,0.0,1.0,68,0.00,,,0.00,meteohub,2013-02-17 01:07:00,
2013-02-16 20:12:00,27.7,18.1,29.13,NW,318,0.0,1.0,67,0.00,,,0.00,meteohub,2013-02-17 01:12:00,
2013-02-16 20:17:00,27.7,18.1,29.13,NW,318,0.0,3.0,67,0.00,,,0.00,meteohub,2013-02-17 01:17:00,
2013-02-16 20:22:00,27.7,17.8,29.13,NW,324,0.0,3.0,66,0.00,,,0.00,meteohub,2013-02-17 01:22:00,
2013-02-16 20:27:00,27.7,18.1,29.13,SSW,195,0.0,4.0,67,0.00,,,0.00,meteohub,2013-02-17 01:27:00,
2013-02-16 20:32:00,27.7,18.1,29.13,NNW,342,0.0,4.0,67,0.00,,,0.00,meteohub,2013-02-17 01:32:00,
2013-02-16 20:37:00,27.7,17.8,29.13,NW,308,1.0,4.0,66,0.00,,,0.00,meteohub,2013-02-17 01:37:00,
2013-02-16 20:43:00,27.7,18.1,29.13,NW,319,0.0,2.0,67,0.00,,,0.00,meteohub,2013-02-17 01:43:00,
2013-02-16 20:48:00,27.7,18.9,29.13,West,280,1.0,2.0,69,0.00,,,0.00,meteohub,2013-02-17 01:48:00,
2013-02-16 20:53:00,27.7,18.5,29.13,North,9,0.0,3.0,68,0.00,,,0.00,meteohub,2013-02-17 01:53:00,
2013-02-16 20:58:00,27.7,18.9,29.12,NW,319,0.0,4.0,69,0.00,,,0.00,meteohub,2013-02-17 01:58:00,
2013-02-16 21:03:00,27.5,18.7,29.12,NE,38,1.0,4.0,69,0.00,,,0.00,meteohub,2013-02-17 02:03:00,
2013-02-16 21:08:00,27.3,18.1,29.12,NW,305,0.0,4.0,68,0.00,,,0.00,meteohub,2013-02-17 02:08:00,
2013-02-16 21:13:00,27.3,18.9,29.12,NNW,328,2.0,3.0,70,0.00,,,0.00,meteohub,2013-02-17 02:13:00,
2013-02-16 21:18:00,27.1,18.3,29.11,NNE,27,3.0,3.0,69,0.00,,,0.00,meteohub,2013-02-17 02:18:00,
2013-02-16 21:23:00,27.1,18.0,29.11,NW,314,1.0,6.0,68,0.00,,,0.00,meteohub,2013-02-17 02:23:00,
2013-02-16 21:29:00,27.1,18.0,29.11,NW,320,2.0,6.0,68,0.00,,,0.00,meteohub,2013-02-17 02:29:00,
2013-02-16 21:34:00,27.1,18.0,29.11,North,354,0.0,6.0,68,0.00,,,0.00,meteohub,2013-02-17 02:34:00,
2013-02-16 21:39:00,27.1,17.6,29.11,NE,53,3.0,3.0,67,0.00,,,0.00,meteohub,2013-02-17 02:39:00,
2013-02-16 21:44:00,27.1,18.0,29.10,NW,319,0.0,3.0,68,0.00,,,0.00,meteohub,2013-02-17 02:44:00,
2013-02-16 21:49:00,27.1,17.2,29.10,NW,322,1.0,4.0,66,0.00,,,0.00,meteohub,2013-02-17 02:49:00,
2013-02-16 21:54:00,27.0,17.4,29.09,NNW,333,1.0,5.0,67,0.00,,,0.00,meteohub,2013-02-17 02:54:00,
2013-02-16 21:59:00,27.0,17.1,29.10,NW,324,1.0,5.0,66,0.00,,,0.00,meteohub,2013-02-17 02:59:00,
2013-02-16 22:04:00,27.0,17.1,29.10,NW,324,0.0,5.0,66,0.00,,,0.00,meteohub,2013-02-17 03:04:00,
2013-02-16 22:10:00,27.0,17.1,29.10,North,350,1.0,4.0,66,0.00,,,0.00,meteohub,2013-02-17 03:10:00,
2013-02-16 22:15:00,27.0,17.1,29.09,NNW,336,1.0,4.0,66,0.00,,,0.00,meteohub,2013-02-17 03:15:00,
2013-02-16 22:20:00,26.8,16.9,29.09,NNE,16,2.0,4.0,66,0.00,,,0.00,meteohub,2013-02-17 03:20:00,
2013-02-16 22:25:00,26.8,16.5,29.08,NNW,339,0.0,4.0,65,0.00,,,0.00,meteohub,2013-02-17 03:25:00,
2013-02-16 22:30:00,26.8,17.2,29.08,NW,326,1.0,3.0,67,0.00,,,0.00,meteohub,2013-02-17 03:30:00,
2013-02-16 22:35:00,26.8,17.2,29.08,NNE,33,0.0,3.0,67,0.00,,,0.00,meteohub,2013-02-17 03:35:00,
2013-02-16 22:40:00,26.8,17.2,29.08,NW,326,4.0,4.0,67,0.00,,,0.00,meteohub,2013-02-17 03:40:00,
2013-02-16 22:46:00,26.8,16.5,29.07,NNW,330,1.0,4.0,65,0.00,,,0.00,meteohub,2013-02-17 03:46:00,
2013-02-16 22:51:00,26.8,17.6,29.07,NNE,33,1.0,4.0,68,0.00,,,0.00,meteohub,2013-02-17 03:51:00,
2013-02-16 22:56:00,26.6,17.4,29.06,NE,38,2.0,4.0,68,0.00,,,0.00,meteohub,2013-02-17 03:56:00,
2013-02-16 23:01:00,26.6,17.1,29.06,NNE,25,0.0,3.0,67,0.00,,,0.00,meteohub,2013-02-17 04:01:00,
2013-02-16 23:06:00,26.6,17.4,29.06,NW,310,0.0,2.0,68,0.00,,,0.00,meteohub,2013-02-17 04:06:00,
2013-02-16 23:11:00,26.4,16.5,29.07,NW,326,0.0,2.0,66,0.00,,,0.00,meteohub,2013-02-17 04:11:00,
2013-02-16 23:16:00,26.6,17.8,29.05,NW,322,1.0,2.0,69,0.00,,,0.00,meteohub,2013-02-17 04:16:00,
2013-02-16 23:21:00,26.4,17.6,29.05,NW,318,0.0,2.0,69,0.00,,,0.00,meteohub,2013-02-17 04:21:00,
2013-02-16 23:27:00,26.4,16.9,29.05,NW,319,1.0,2.0,67,0.00,,,0.00,meteohub,2013-02-17 04:27:00,
2013-02-16 23:32:00,26.4,17.6,29.05,North,3,0.0,2.0,69,0.00,,,0.00,meteohub,2013-02-17 04:32:00,
2013-02-16 23:37:00,26.4,17.2,29.03,NW,323,0.0,2.0,68,0.00,,,0.00,meteohub,2013-02-17 04:37:00,
2013-02-16 23:42:00,26.4,17.6,29.03,NW,323,0.0,2.0,69,0.00,,,0.00,meteohub,2013-02-17 04:42:00,
2013-02-16 23:47:00,26.4,17.2,29.03,NW,320,0.0,2.0,68,0.00,,,0.00,meteohub,2013-02-17 04:47:00,
2013-02-16 23:52:00,26.4,17.6,29.02,NW,320,1.0,2.0,69,0.00,,,0.00,meteohub,2013-02-17 04:52:00,
2013-02-16 23:57:00,26.2,17.4,29.02,WNW,302,0.0,2.0,69,0.00,,,0.00,meteohub,2013-02-17 04:57:00,